Hourly Data Report for February 29, 2012

HALIFAX STANFIELD INT'L A
NOVA SCOTIA

44°52'48.060" N
63°30'00.050" W
145.40 m
8202250
71395
YHZ

Download Data

Hourly Data (February 2012)
Hourly Data Report for February 29, 2012
TIME
LST
Temp Definition
°C
Dew Point Definition
°C
Rel Hum Definition
%
Precip. Amount Definition
mm

Wind Dir Definition
10's deg

Wind Spd Definition
km/h
Visibility Definition
km
Stn Press Definition
kPa
Hmdx Definition


Wind Chill Definition


Weather Definition


00:00 -7.0 -9.5 82   35 19 19.3 100.61   -14 Snow Showers
01:00 -7.2 -9.0 87   35 17 12.9 100.65   -14 Snow Showers
02:00 -7.4 -9.2 87   33 15 12.9 100.66   -14 Snow Showers
03:00 -7.9 -9.8 86   32 13 24.1 100.69   -14 Mainly Clear
04:00 -9.7 -10.9 91   31 7 24.1 100.73   -14 Clear
05:00 -10.5 -11.8 90   31 7 24.1 100.76   -15 Mainly Clear
06:00 -11.7 -13.2 89   27 7 24.1 100.79   -16 Mainly Clear
07:00 -11.9 -13.5 88   23 6 24.1 100.81   -16 Mainly Clear
08:00 -8.7 -10.1 90   26 6 24.1 100.82   -12 Snow Showers
09:00 -7.0 -9.2 84   24 13 24.1 100.79   -13 Snow Showers
10:00 -5.9 -10.2 72   26 15 24.1 100.74   -12 Snow Showers
11:00 -4.4 -10.4 63   27 15 24.1 100.70   -10 Snow Showers
12:00 -4.0 -10.3 62   29 20 24.1 100.65   -10 Snow Showers
13:00 -3.7 -10.0 62   28 19 24.1 100.58   -10 Snow Showers
14:00 -3.2 -9.7 61   29 15 24.1 100.51   -8 Snow Showers
15:00 -2.1 -9.4 57   29 19 24.1 100.44   -8 Mostly Cloudy
16:00 -2.5 -9.6 58   30 26 24.1 100.40   -9 Mostly Cloudy
17:00 -3.6 -9.6 63   31 28 24.1 100.44   -11 Mainly Clear
18:00 -4.7 -10.3 65   30 19 24.1 100.49   -11 Mainly Clear
19:00 -5.0 -10.6 65   32 13 24.1 100.54   -10 Mainly Clear
20:00 -6.2 -10.5 72   32 9 24.1 100.60   -10 Mainly Clear
21:00 -6.8 -9.0 84   34 9 24.1 100.62   -11 Mainly Clear
22:00 -7.7 -11.2 76   36 15 24.1 100.58   -14 Mainly Clear
23:00 -8.5 -11.6 78   3 6 24.1 100.60   -12 Mainly Clear

Notes on Data Quality.

Legend

  • E = Estimated
  • M = Missing
  • NA = Not Available*
  • [empty] = Indicates an unobserved value
Date modified: